Regional Weather Roundup
Issued by NWS

Home | Current Version | Previous Version | Graphics & Text | Print | Product List | Glossary On
Versions: 1 2 3 4 5 6 7 8 9 10 11 12 13 14 15 16 17 18 19 20 21 22 23 24 25 26 27 28 29 30 31 32 33 34 35 36 37 38 39 40 41 42 43 44 45 46 47 48 49
000
ASUS45 KBOU 271307
RWRCO

WEATHER ROUNDUP FOR COLORADO
NATIONAL WEATHER SERVICE DENVER/BOULDER CO
600 AM MST FRI FEB 27 2015

NOTE: "FAIR" INDICATES FEW OR NO CLOUDS BELOW 12000 FEET WITH NO
SIGNIFICANT WEATHER AND/OR OBSTRUCTIONS TO VISIBILITY.

COZ001>005-013-030-031-271400-
...NORTHWEST COLORADO...

CITY           SKY/WX    TMP DP  RH WIND       PRES   REMARKS
CRAIG            N/A    N/A N/A N/A MISG      29.88R
HAYDEN         CLOUDY    12   7  79 W6        29.84R WCI   3
MEEKER         CLOUDY     9   6  88 CALM      29.84R
MOUNT WERNER   NOT AVBL
STEAMBOAT SPGS NOT AVBL
WALDEN         CLOUDY    -8 -13  77 CALM      29.78F VSB 1/2
$$

COZ006>008-011-271400-
...WEST CENTRAL VALLEYS...

CITY           SKY/WX    TMP DP  RH WIND       PRES   REMARKS
GRAND JUNCTION CLOUDY    31  30  96 SE7       29.82S WCI  24
MONTROSE       CLOUDY    22  17  81 SE8       29.83R WCI  12
EAGLE          CLOUDY    23  21  93 SE5       29.82S WCI  17
RIFLE          CLOUDY    26  17  68 NW3       29.82R
DELTA          LGT SNOW  29  26  88 CALM      29.84R
NUCLA          FLURRIES  28  27  93 E5        29.86R WCI  23
$$

COZ017>023-064>068-271400-
...SOUTHWEST COLORADO...

CITY           SKY/WX    TMP DP  RH WIND       PRES   REMARKS
DURANGO        CLOUDY    22  21  96 NE3       29.83R
CORTEZ         CLOUDY    28  27  96 CALM      29.85R
PAGOSA SPRINGS CLOUDY    26  26 100 SW3       29.82R
TELLURIDE      CLOUDY    19  17  92 S3        29.79R
WOLF CREEK PAS HVY SNOW   9   7  92 SW22      29.75R VSB 1/4 WCI -11
$$

COZ009-010-012-014-032>034-037-058>063-271400-
...CENTRAL COLORADO...

CITY           SKY/WX    TMP DP  RH WIND       PRES   REMARKS
ASPEN          LGT SNOW  19  16  88 SE3       29.74S FOG
BUENA VISTA    LGT SNOW  -3  -8  79 CALM      29.86S
COPPER MTN     NOT AVBL
BERTHOUD PASS  CLOUDY    -4  -9  77 NW17      29.63R WCI -26
COTTONWOOD PAS CLOUDY     1  -4  78 CALM      29.73F
GUNNISON       MOCLDY    16   7  67 CALM      29.81R
KREMMLING      CLOUDY     9   3  78 CALM      29.82S
LEADVILLE      LGT SNOW  -5 -10  79 CALM      29.72R
SALIDA         CLOUDY     5   0  81 SE7       29.97S WCI  -7
SUNLIGHT       LGT SNOW  14  12  92 CALM        N/A
WILKERSON PASS MOCLDY     3   0  85 W8        29.69S WCI -10
$$

COZ069>075-271400-
...SAN LUIS VALLEY/SANGRE DE CRISTO MOUNTAINS...

CITY           SKY/WX    TMP DP  RH WIND       PRES   REMARKS
ALAMOSA        LGT SNOW  16  11  80 S10       29.81S WCI   4
LA VETA PASS   SNOW       5   1  85 MISG      29.74S VSB 1/2
SAGUACHE       LGT SNOW  16  14  93 CALM      29.82R
$$

COZ035-036-038>040-271400-
...NORTHERN COLORADO FRONT RANGE...

CITY           SKY/WX    TMP DP  RH WIND       PRES   REMARKS
DENVER INTL AP PTCLDY    -5  -9  83 S10       30.01S WCI -23
DMNS CITY PARK   N/A      8   6  91 E3        30.01S
AURORA         MOCLDY     1  -5  77 S12       30.00S WCI -16
FRONT RANGE AP NOT AVBL
ERIE MUNI ARPT NOT AVBL
BOULDER MUN AP NOT AVBL
CENTENNIAL     MOCLDY     2  -3  80 SE7       29.97F WCI -11
BROOMFIELD     LGT SNOW  12   3  67 W3        29.99F
FORT COLLINS   PTCLDY     5   1  85 N3        30.04S
LONGMONT       NOT AVBL
$$

COZ041-046-047-076>085-087-088-271400-
...PIKES PEAK/PALMER DIVIDE AND SOUTHERN FOOTHILLS...

CITY           SKY/WX    TMP DP  RH WIND       PRES   REMARKS
COLO. SPRINGS  LGT SNOW   6   3  87 SE8       30.00F FOG     WCI  -7
A. F. ACADEMY  CLOUDY     4   0  81 SE12      29.95F WCI -12
ELLICOTT       NOT AVBL
FALCON         NOT AVBL
FORT CARSON    LGT SNOW   6   3  87 SE5       30.01S FOG     WCI  -3
LIMON          LGT SNOW   7   4  87 SE17      30.06S FOG     WCI -12
MONUMENT HILL  NOT AVBL
TRINIDAD       LGT SNOW   6   3  87 N6        30.01S FOG     WCI  -4
$$

COZ042>045-048>051-090-091-271400-
...NORTHEAST COLORADO...

CITY           SKY/WX    TMP DP  RH WIND       PRES   REMARKS
GREELEY ARPT   PTCLDY     5  -6  61 SE6       30.06S WCI  -6
AKRON          LGT SNOW   7   5  91 SE15      30.12S FOG     WCI -10
BURLINGTON     LGT SNOW  10   6  84 SE18      30.20S FOG     WCI  -8
WRAY           LGT SNOW  10   6  84 E14       30.26S WCI  -5
STERLING       NOT AVBL
HOLYOKE        NOT AVBL
FORT MORGAN    FLURRIES   8   5  88 E8        30.13S WCI  -5
$$

COZ086-089-092>099-271400-
...SOUTHEAST COLORADO...

CITY           SKY/WX    TMP DP  RH WIND       PRES   REMARKS
PUEBLO         LGT SNOW  10   8  92 NE6       30.09F FOG     WCI   0
LA JUNTA       LGT SNOW  14   9  80 SE20      30.15S WCI  -3
LAMAR          LGT SNOW  12  32 100 SE12      30.22S WCI  -2
SPRINGFIELD      N/A      8   6  92 SE18      30.18F WCI -11
$$



USA.gov is the U.S. government's official web portal to all federal, state and local government web resources and services.